Overview Statistics Trail Chart Weather Telemetry Raw packets
 

This is the latest recevied weather packets stored in our database for station/object K5KVN. If no packets are shown the sender has not sent any weather packets the latest 10 day(s).

<< 1 2 3 4 5 6 7 >>
Time Temp. Humidity Pressure Rain* Wind** Luminosity Snow
1788640737 38.89° C 38% 1013.9 hPa 0 mm - - -
1788640136 37.78° C 39% 1014.1 hPa 0 mm - - -
1788639537 37.22° C 39% 1014.2 hPa 0 mm - - -
1788638942 37.22° C 40% 1014.4 hPa 0 mm - - -
1788638336 37.78° C 39% 1014.5 hPa 0 mm - - -
1788637739 38.89° C 38% 1014.7 hPa 0 mm - - -
1788637193 38.33° C 39% 1014.8 hPa 0 mm - - -
1788636531 37.78° C 40% 1015 hPa 0 mm - - -
1788635931 37.22° C 42% 1015.2 hPa 0 mm - - -
1788635332 36.67° C 43% 1015.4 hPa 0 mm - - -
1788634729 36.67° C 43% 1015.5 hPa 0 mm - - -
1788634188 37.22° C 43% 1015.6 hPa 0 mm - - -
1788633525 37.78° C 42% 1015.7 hPa 0 mm - - -
1788632926 37.22° C 43% 1015.8 hPa 0 mm - - -
1788632325 37.22° C 43% 1016 hPa 0 mm - - -
1788631726 37.22° C 42% 1016.1 hPa 0 mm - - -
1788631185 37.78° C 43% 1016.3 hPa 0 mm - - -
1788630523 37.22° C 43% 1016.4 hPa 0 mm - - -
1788629922 36.67° C 45% 1016.5 hPa 0 mm - - -
1788629324 35.56° C 47% 1016.8 hPa 0 mm - - -
1788628722 35.56° C 47% 1016.8 hPa 0 mm - - -
1788628122 36.67° C 47% 1016.9 hPa 0 mm - - -
1788627521 36.11° C 47% 1016.9 hPa 0 mm - - -
1788626921 35.56° C 49% 1017 hPa 0 mm - - -
1788626321 35.56° C 48% 1017.1 hPa 0 mm - - -

* Rain latest hour (hover to see other rain measurements)
** Current wind speed in m/s (hover to see current wind gust speed)